Location: Paris
(48.6709°N, 2.3750°E)
Time: 13:00:40
(UTC+02:00)

NOAA 18 - Pass Details

Date: 06 July 2022
Orbit: 839 x 860 km, 98.9° (Epoch: 10 August)

Event Time Altitude Azimuth Distance (km) Brightness Sun altitude
Exits shadow 23:37:44 13° 176° (S) 2,292 6.9 -12.4°
Maximum altitude 23:42:43 65° 257° (WSW) 941 5.5 -12.8°
Drops below altitude 10° 23:48:15 10° 340° (NNW) 2,508 9.1 -13.3°
Sets 23:50:40 0° 343° (NNW) 3,450 10.1 -13.5°
